GFSFLT2_prec_kuchsnow_129.txt.gz
Snowfall_Accumulation
0.1 0.5 0.3 0.0 0.0 0.0 0.0 0.0 0.0 0.0 0.0 0.0 0.0 0.0 0.0 0.0 0.0 0.0 0.0 0.0 0.0 0.0 0.0 0.0 0.0 0.0 0.0
0.6 0.3 0.1 0.0 0.0 0.0 0.0 0.1 0.0 0.0 0.0 0.0 0.0 0.0 0.0 0.0 0.0 0.0 0.0 0.0 0.0 0.0 0.0 0.0 0.0 0.0 0.0
0.2 0.0 0.0 0.6 0.0 0.0 0.0 0.0 0.0 0.0 0.0 0.0 0.0 0.0 0.0 0.0 0.0 0.0 0.0 0.0 0.0 0.0 0.0 0.0 0.0 0.0 0.0
0.4 0.7 0.3 0.0 0.2 0.0 0.0 0.0 0.0 0.0 0.0 0.0 0.0 0.0 0.0 0.0 0.0 0.0 0.0 0.0 0.0 0.0 0.0 0.0 0.0 0.0 0.0
2.2 2.2 0.1 0.0 0.0 0.0 0.0 0.0 0.2 0.0 0.0 0.0 0.0 0.0 0.0 0.0 0.0 0.0 0.0 0.0 0.0 0.0 0.0 0.0 0.0 0.0 0.0
3.0 0.5 0.0 0.0 0.0 0.1 2.0 2.1 1.7 0.0 0.0 0.1 0.0 0.0 0.0 0.0 0.0 0.0 0.0 0.0 0.0 0.0 0.0 0.0 0.0 0.0 0.0
0.3 0.2 0.3 0.1 3.0 3.6 1.4 2.1 1.2 0.0 0.2 0.4 0.0 0.0 0.0 0.0 0.0 0.0 0.0 0.0 0.0 0.0 0.0 0.0 0.0 0.0 0.0
0.0 0.2 0.7 0.2 0.3 0.7 1.0 1.1 0.5 0.0 0.0 2.4 0.0 0.1 0.0 0.0 0.0 0.0 0.0 0.0 0.0 0.0 0.0 0.0 0.0 0.0 0.0
0.2 0.1 0.0 0.0 0.0 1.6 3.3 3.8 2.4 0.1 0.0 1.2 0.4 0.2 0.0 0.0 0.0 0.0 0.0 0.0 0.0 0.0 0.0 0.0 0.0 0.0 0.0
0.0 0.0 0.0 0.0 0.0 0.2 4.0 12.0 5.7 3.7 0.0 4.4 1.2 1.2 5.6 0.0 0.0 0.0 0.0 0.0 0.0 0.0 0.0 0.1 0.0 0.4 0.8
0.0 0.0 0.0 0.0 0.1 0.1 1.6 9.9 15.4 9.4 0.0 8.8 10.8 2.3 8.1 3.6 2.5 2.5 1.7 1.1 1.5 2.0 1.9 1.2 0.9 1.0 3.0
0.1 0.2 0.2 0.3 0.2 0.3 0.4 1.7 3.6 8.9 3.2 4.6 19.0 7.0 12.6 8.9 5.0 5.7 4.4 4.8 7.5 8.0 9.3 2.5 1.0 0.6 0.4
1.1 0.5 0.2 0.1 0.4 0.6 0.8 1.3 2.0 2.9 3.8 4.1 9.5 9.8 13.0 12.7 8.0 5.1 7.4 6.2 6.1 7.7 6.4 6.5 5.0 3.2 2.4
2.5 0.7 0.1 0.5 0.8 1.4 4.6 3.4 5.4 3.3 3.6 4.8 7.0 9.2 11.3 6.7 8.2 7.3 5.9 10.9 8.1 7.3 5.9 6.7 2.0 1.4 0.7
2.3 2.2 0.9 0.7 1.3 2.0 5.4 7.4 9.8 6.9 6.3 5.0 3.8 3.5 4.3 5.8 7.5 4.9 6.1 7.0 9.0 8.3 6.1 8.2 5.4 1.1 0.3
2.9 2.1 4.2 3.8 4.0 3.8 5.9 8.7 9.7 7.0 7.7 6.3 4.7 3.5 3.4 3.5 4.1 9.1 7.0 8.3 8.9 6.9 5.2 7.4 7.7 3.8 0.1
5.2 5.5 5.9 4.7 4.3 5.8 6.6 7.2 7.9 6.4 5.3 3.7 5.0 8.6 10.4 4.7 3.4 3.5 13.5 10.1 6.6 5.6 3.6 4.0 6.8 5.3 0.1

GFSFLT2_prec_kuchsnow_132.txt.gz
Snowfall_Accumulation
0.1 0.5 0.3 0.0 0.0 0.0 0.0 0.0 0.0 0.0 0.0 0.0 0.0 0.0 0.0 0.0 0.0 0.0 0.0 0.0 0.0 0.0 0.0 0.0 0.0 0.0 0.0
0.6 0.3 0.1 0.0 0.0 0.0 0.0 0.1 0.0 0.0 0.0 0.0 0.0 0.0 0.0 0.0 0.0 0.0 0.0 0.0 0.0 0.0 0.0 0.0 0.0 0.0 0.0
0.2 0.0 0.0 0.6 0.0 0.0 0.0 0.0 0.0 0.0 0.0 0.0 0.0 0.0 0.0 0.0 0.0 0.0 0.0 0.0 0.0 0.0 0.0 0.0 0.0 0.0 0.0
0.4 0.7 0.3 0.0 0.2 0.0 0.0 0.0 0.0 0.0 0.0 0.0 0.0 0.0 0.0 0.0 0.0 0.0 0.0 0.0 0.0 0.0 0.0 0.0 0.0 0.0 0.0
2.2 2.2 0.1 0.0 0.0 0.0 0.0 0.0 0.2 0.0 0.0 0.0 0.0 0.0 0.0 0.0 0.0 0.0 0.0 0.0 0.0 0.0 0.0 0.0 0.0 0.0 0.0
3.0 0.5 0.0 0.0 0.0 0.1 2.0 2.1 1.7 0.0 0.0 0.1 0.0 0.0 0.0 0.0 0.0 0.0 0.0 0.0 0.0 0.0 0.0 0.0 0.0 0.0 0.0
0.3 0.2 0.3 0.1 3.0 3.6 1.4 2.1 1.2 0.0 0.2 0.4 0.0 0.0 0.0 0.0 0.0 0.0 0.0 0.0 0.0 0.0 0.0 0.0 0.0 0.0 0.0
0.0 0.2 0.7 0.2 0.3 0.7 1.0 1.1 0.5 0.0 0.0 2.4 0.0 0.1 0.0 0.0 0.0 0.0 0.0 0.0 0.0 0.0 0.0 0.0 0.0 0.0 0.0
0.2 0.1 0.0 0.0 0.0 1.6 3.3 3.8 2.4 0.1 0.0 1.2 0.4 0.2 0.0 0.0 0.0 0.0 0.0 0.0 0.0 0.0 0.0 0.0 0.0 0.0 0.0
0.0 0.0 0.0 0.0 0.0 0.2 4.0 12.0 5.7 3.7 0.0 4.4 1.2 1.2 5.6 0.0 0.0 0.0 0.0 0.0 0.0 0.0 0.0 0.1 0.0 0.4 0.8
0.0 0.0 0.0 0.0 0.1 0.1 1.6 9.9 15.4 9.4 0.0 8.8 10.8 2.3 8.1 3.6 2.5 2.5 1.7 1.1 1.5 2.0 1.9 1.2 0.9 1.0 3.0
0.1 0.2 0.2 0.3 0.2 0.3 0.4 1.7 3.6 8.9 3.2 4.6 19.0 7.0 12.6 8.9 5.0 5.7 4.4 4.8 7.5 8.0 9.3 2.5 1.0 0.6 0.4
1.1 0.5 0.2 0.1 0.4 0.6 0.8 1.3 2.0 2.9 3.8 4.1 9.5 9.8 13.0 12.7 8.0 5.1 7.4 6.2 6.1 7.7 6.4 6.5 5.0 3.2 2.4
2.5 0.7 0.1 0.5 0.8 1.4 4.7 3.4 5.4 3.3 3.6 4.8 7.0 9.2 11.3 6.7 8.2 7.3 5.9 10.9 8.1 7.3 5.9 6.7 2.0 1.4 0.7
2.3 2.2 0.9 0.7 2.8 3.1 5.8 7.5 9.9 6.9 6.3 5.0 3.8 3.5 4.3 5.8 7.5 4.9 6.1 7.0 9.0 8.3 6.1 8.2 5.4 1.1 0.3
2.9 2.1 5.5 5.3 5.7 5.3 6.7 9.0 9.8 7.0 7.7 6.3 4.7 3.5 3.4 3.5 4.1 9.1 7.0 8.3 8.9 6.9 5.2 7.4 7.7 3.8 0.1
5.2 5.5 7.7 6.3 5.6 6.7 7.3 7.8 8.2 6.6 5.4 3.8 5.0 8.6 10.4 4.7 3.4 3.5 13.5 10.1 6.6 5.6 3.6 4.0 6.8 5.3 0.1

GFSFLT2_prec_kuchsnow_135.txt.gz
Snowfall_Accumulation
0.1 0.5 0.3 0.0 0.0 0.0 0.0 0.0 0.0 0.0 0.0 0.0 0.0 0.0 0.0 0.0 0.0 0.0 0.0 0.0 0.0 0.0 0.0 0.0 0.0 0.0 0.0
0.6 0.3 0.1 0.0 0.0 0.0 0.0 0.1 0.0 0.0 0.0 0.0 0.0 0.0 0.0 0.0 0.0 0.0 0.0 0.0 0.0 0.0 0.0 0.0 0.0 0.0 0.0
0.2 0.0 0.0 0.6 0.0 0.0 0.0 0.0 0.0 0.0 0.0 0.0 0.0 0.0 0.0 0.0 0.0 0.0 0.0 0.0 0.0 0.0 0.0 0.0 0.0 0.0 0.0
0.4 0.7 0.3 0.0 0.2 0.0 0.0 0.0 0.0 0.0 0.0 0.0 0.0 0.0 0.0 0.0 0.0 0.0 0.0 0.0 0.0 0.0 0.0 0.0 0.0 0.0 0.0
2.2 2.2 0.1 0.0 0.0 0.0 0.0 0.0 0.2 0.0 0.0 0.0 0.0 0.0 0.0 0.0 0.0 0.0 0.0 0.0 0.0 0.0 0.0 0.0 0.0 0.0 0.0
3.0 0.5 0.0 0.0 0.0 0.1 2.0 2.1 1.7 0.0 0.0 0.1 0.0 0.0 0.0 0.0 0.0 0.0 0.0 0.0 0.0 0.0 0.0 0.0 0.0 0.0 0.0
0.3 0.2 0.3 0.1 3.0 3.6 1.4 2.1 1.2 0.0 0.2 0.4 0.0 0.0 0.0 0.0 0.0 0.0 0.0 0.0 0.0 0.0 0.0 0.0 0.0 0.0 0.0
0.0 0.2 0.7 0.2 0.3 0.7 1.0 1.1 0.5 0.0 0.0 2.4 0.0 0.1 0.0 0.0 0.0 0.0 0.0 0.0 0.0 0.0 0.0 0.0 0.0 0.0 0.0
0.2 0.1 0.0 0.0 0.0 1.6 3.3 3.8 2.4 0.1 0.0 1.2 0.4 0.2 0.0 0.0 0.0 0.0 0.0 0.0 0.0 0.0 0.0 0.0 0.0 0.0 0.0
0.0 0.0 0.0 0.0 0.0 0.2 4.0 12.0 5.7 3.7 0.0 4.4 1.2 1.2 5.6 0.0 0.0 0.0 0.0 0.0 0.0 0.0 0.0 0.1 0.0 0.4 0.8
0.0 0.0 0.0 0.0 0.1 0.1 1.6 9.9 15.4 9.4 0.0 8.8 10.8 2.3 8.1 3.6 2.5 2.5 1.7 1.1 1.5 2.0 1.9 1.2 0.9 1.0 3.0
0.1 0.2 0.2 0.3 0.2 0.3 0.4 1.7 3.6 8.9 3.2 4.6 19.0 7.0 12.6 8.9 5.0 5.7 4.4 4.8 7.5 8.0 9.3 2.5 1.0 0.6 0.4
1.1 0.5 0.2 0.1 0.4 0.6 0.8 1.3 2.0 2.9 3.8 4.1 9.5 9.8 13.0 12.7 8.0 5.1 7.4 6.2 6.1 7.7 6.4 6.5 5.0 3.2 2.4
2.5 0.7 0.1 0.5 0.8 1.4 4.7 3.4 5.4 3.3 3.9 4.8 7.0 9.2 11.3 6.7 8.2 7.3 5.9 10.9 8.1 7.3 5.9 6.7 2.0 1.4 0.7
2.3 2.2 0.9 0.7 2.8 3.1 5.8 9.3 11.4 7.9 7.0 5.4 3.9 3.5 4.3 5.8 7.5 4.9 6.1 7.0 9.0 8.3 6.1 8.2 5.4 1.1 0.3
2.9 2.1 5.5 5.3 7.2 7.2 8.9 11.3 11.7 8.5 8.8 6.8 4.9 3.6 3.4 3.5 4.1 9.1 7.0 8.3 8.9 6.9 5.2 7.4 7.7 3.8 0.1
5.2 6.0 8.5 7.4 6.9 8.7 9.2 9.7 9.9 7.8 6.3 4.3 5.2 8.7 10.4 4.7 3.4 3.5 13.5 10.1 6.6 5.6 3.6 4.0 6.8 5.3 0.1

GFSFLT2_prec_kuchsnow_138.txt.gz
Snowfall_Accumulation
0.1 0.5 0.3 0.0 0.0 0.0 0.0 0.0 0.0 0.0 0.0 0.0 0.0 0.0 0.0 0.0 0.0 0.0 0.0 0.0 0.0 0.0 0.0 0.0 0.0 0.0 0.0
0.6 0.3 0.1 0.0 0.0 0.0 0.0 0.1 0.0 0.0 0.0 0.0 0.0 0.0 0.0 0.0 0.0 0.0 0.0 0.0 0.0 0.0 0.0 0.0 0.0 0.0 0.0
0.2 0.0 0.0 0.6 0.0 0.0 0.0 0.0 0.0 0.0 0.0 0.0 0.0 0.0 0.0 0.0 0.0 0.0 0.0 0.0 0.0 0.0 0.0 0.0 0.0 0.0 0.0
0.4 0.7 0.3 0.0 0.2 0.0 0.0 0.0 0.0 0.0 0.0 0.0 0.0 0.0 0.0 0.0 0.0 0.0 0.0 0.0 0.0 0.0 0.0 0.0 0.0 0.0 0.0
2.2 2.2 0.1 0.0 0.0 0.0 0.0 0.0 0.2 0.0 0.0 0.0 0.0 0.0 0.0 0.0 0.0 0.0 0.0 0.0 0.0 0.0 0.0 0.0 0.0 0.0 0.0
3.0 0.5 0.0 0.0 0.0 0.1 2.0 2.1 1.7 0.0 0.0 0.1 0.0 0.0 0.0 0.0 0.0 0.0 0.0 0.0 0.0 0.0 0.0 0.0 0.0 0.0 0.0
0.3 0.2 0.3 0.1 3.0 3.6 1.4 2.1 1.2 0.0 0.2 0.4 0.0 0.0 0.0 0.0 0.0 0.0 0.0 0.0 0.0 0.0 0.0 0.0 0.0 0.0 0.0
0.0 0.2 0.7 0.2 0.3 0.7 1.0 1.1 0.5 0.0 0.0 2.4 0.0 0.1 0.0 0.0 0.0 0.0 0.0 0.0 0.0 0.0 0.0 0.0 0.0 0.0 0.0
0.2 0.1 0.0 0.0 0.0 1.6 3.3 3.8 2.4 0.1 0.0 1.2 0.4 0.2 0.0 0.0 0.0 0.0 0.0 0.0 0.0 0.0 0.0 0.0 0.0 0.0 0.0
0.0 0.0 0.0 0.0 0.0 0.2 4.0 12.0 5.7 3.7 0.0 4.4 1.2 1.2 5.6 0.0 0.0 0.0 0.0 0.0 0.0 0.0 0.0 0.1 0.0 0.4 0.8
0.0 0.0 0.0 0.0 0.1 0.1 1.6 9.9 15.4 9.4 0.0 8.8 10.8 2.3 8.1 3.6 2.5 2.5 1.7 1.1 1.5 2.0 1.9 1.2 0.9 1.0 3.0
0.1 0.2 0.2 0.3 0.2 0.3 0.4 1.7 3.6 8.9 3.2 4.6 19.0 7.0 12.6 8.9 5.3 5.9 4.4 4.8 7.5 8.0 9.3 2.5 1.0 0.6 0.4
1.1 0.5 0.2 0.1 0.4 0.6 0.8 1.3 2.0 2.9 3.8 4.1 9.5 9.8 13.0 12.7 8.0 5.3 7.5 6.2 6.1 7.7 6.4 6.5 5.0 3.2 2.4
2.5 0.7 0.1 0.5 0.8 1.4 4.7 3.4 5.4 3.3 3.9 4.8 7.0 9.2 11.3 7.1 8.5 7.5 6.0 10.9 8.1 7.3 5.9 6.7 2.0 1.4 0.7
2.3 2.2 0.9 0.7 2.8 3.1 5.8 9.3 12.7 7.9 8.0 6.8 5.4 3.5 4.3 6.5 7.9 5.1 6.2 7.0 9.0 8.3 6.1 8.2 5.4 1.1 0.3
2.9 2.1 5.5 5.3 7.2 7.7 9.6 12.3 12.8 9.9 10.7 9.0 7.1 5.8 5.0 4.4 4.4 9.3 7.0 8.3 8.9 6.9 5.2 7.4 7.7 3.8 0.1
5.2 6.0 8.5 7.4 7.3 9.2 9.9 10.5 10.9 8.7 7.3 5.8 7.1 10.3 12.2 6.1 4.1 3.6 13.5 10.1 6.6 5.6 3.6 4.0 6.8 5.3 0.1

GFSFLT2_prec_kuchsnow_144.txt.gz
Snowfall_Accumulation
0.1 0.5 0.3 0.0 0.0 0.0 0.0 0.0 0.0 0.0 0.0 0.0 0.0 0.0 0.0 0.0 0.0 0.0 0.0 0.0 0.0 0.0 0.0 0.0 0.0 0.0 0.0
0.6 0.3 0.1 0.0 0.0 0.0 0.0 0.1 0.0 0.0 0.0 0.0 0.0 0.0 0.0 0.0 0.0 0.0 0.0 0.0 0.0 0.0 0.0 0.0 0.0 0.0 0.0
0.2 0.0 0.0 0.6 0.0 0.0 0.0 0.0 0.0 0.0 0.0 0.0 0.0 0.0 0.0 0.0 0.0 0.0 0.0 0.0 0.0 0.0 0.0 0.0 0.0 0.0 0.0
0.4 0.7 0.3 0.0 0.2 0.0 0.0 0.0 0.0 0.0 0.0 0.0 0.0 0.0 0.0 0.0 0.0 0.0 0.0 0.0 0.0 0.0 0.0 0.0 0.0 0.0 0.0
2.2 2.2 0.1 0.0 0.0 0.0 0.0 0.0 0.2 0.0 0.0 0.0 0.0 0.0 0.0 0.0 0.0 0.0 0.0 0.0 0.0 0.0 0.0 0.0 0.0 0.0 0.0
3.0 0.5 0.0 0.0 0.0 0.1 2.0 2.1 1.7 0.0 0.0 0.1 0.0 0.0 0.0 0.0 0.0 0.0 0.0 0.0 0.0 0.0 0.0 0.0 0.0 0.0 0.0
0.3 0.2 0.3 0.1 3.0 3.6 1.4 2.1 1.2 0.0 0.2 0.4 0.0 0.0 0.0 0.0 0.0 0.0 0.0 0.0 0.0 0.0 0.0 0.0 0.0 0.0 0.0
0.0 0.2 0.7 0.2 0.3 0.7 1.0 1.1 0.5 0.0 0.0 2.4 0.0 0.1 0.0 0.0 0.0 0.0 0.0 0.0 0.0 0.0 0.0 0.0 0.0 0.0 0.0
0.2 0.1 0.0 0.0 0.0 1.6 3.3 3.8 2.4 0.1 0.0 1.2 0.4 0.2 0.0 0.0 0.0 0.0 0.0 0.0 0.0 0.0 0.0 0.0 0.0 0.0 0.0
0.0 0.0 0.0 0.0 0.0 0.2 4.0 12.0 5.7 3.7 0.0 4.4 1.2 1.2 5.6 0.0 0.0 0.0 0.0 0.0 0.0 0.0 0.0 0.1 0.0 0.4 0.8
0.0 0.0 0.0 0.0 0.1 0.1 1.6 9.9 15.4 9.4 0.0 8.8 10.8 2.3 8.1 3.6 2.5 2.5 1.7 1.1 1.5 2.0 1.9 1.2 0.9 1.0 3.0
0.1 0.2 0.2 0.3 0.2 0.3 0.4 1.7 3.6 8.9 3.2 4.6 19.0 7.0 12.6 8.9 5.3 5.9 4.4 5.3 7.5 8.0 9.3 2.5 1.0 0.6 0.4
1.1 0.5 0.2 0.1 0.4 0.6 0.8 1.3 2.0 2.9 3.8 4.1 9.5 9.8 13.0 12.7 8.0 5.3 7.5 6.9 6.5 7.7 6.4 6.5 5.0 3.2 2.4
2.5 0.7 0.1 0.5 0.8 1.4 4.7 3.4 5.4 3.3 3.9 4.8 7.0 9.2 11.3 7.1 8.5 7.5 7.3 11.8 8.5 7.3 5.9 6.7 2.0 1.4 0.7
2.3 2.2 0.9 0.7 2.8 3.1 5.8 9.3 12.7 7.9 8.0 6.8 5.4 3.5 4.3 6.5 8.1 6.5 7.6 7.9 9.4 8.4 6.1 8.8 5.4 1.1 0.3
2.9 2.1 5.5 5.3 7.2 7.7 9.6 12.3 12.8 9.9 10.7 9.4 7.8 7.3 6.5 5.8 5.1 10.5 8.6 9.4 9.6 7.0 5.2 7.6 8.3 3.8 0.1
5.2 6.0 8.5 7.4 7.3 9.2 9.9 10.5 10.9 8.7 7.4 5.8 7.9 11.2 13.4 7.0 4.9 4.2 14.8 11.2 7.7 6.5 3.7 4.0 6.8 5.3 0.1

GFSFLT2_prec_kuchsnow_147.txt.gz
Snowfall_Accumulation
0.1 0.5 0.3 0.0 0.0 0.0 0.0 0.0 0.0 0.0 0.0 0.0 0.0 0.0 0.0 0.0 0.0 0.0 0.0 0.0 0.0 0.0 0.0 0.0 0.0 0.0 0.0
0.6 0.3 0.1 0.0 0.0 0.0 0.0 0.1 0.0 0.0 0.0 0.0 0.0 0.0 0.0 0.0 0.0 0.0 0.0 0.0 0.0 0.0 0.0 0.0 0.0 0.0 0.0
0.2 0.0 0.0 0.6 0.0 0.0 0.0 0.0 0.0 0.0 0.0 0.0 0.0 0.0 0.0 0.0 0.0 0.0 0.0 0.0 0.0 0.0 0.0 0.0 0.0 0.0 0.0
0.4 0.7 0.3 0.0 0.2 0.0 0.0 0.0 0.0 0.0 0.0 0.0 0.0 0.0 0.0 0.0 0.0 0.0 0.0 0.0 0.0 0.0 0.0 0.0 0.0 0.0 0.0
2.2 2.2 0.1 0.0 0.0 0.0 0.0 0.0 0.2 0.0 0.0 0.0 0.0 0.0 0.0 0.0 0.0 0.0 0.0 0.0 0.0 0.0 0.0 0.0 0.0 0.0 0.0
3.0 0.5 0.0 0.0 0.0 0.1 2.0 2.1 1.7 0.0 0.0 0.1 0.0 0.0 0.0 0.0 0.0 0.0 0.0 0.0 0.0 0.0 0.0 0.0 0.0 0.0 0.0
0.3 0.2 0.3 0.1 3.0 3.6 1.4 2.1 1.2 0.0 0.2 0.4 0.0 0.0 0.0 0.0 0.0 0.0 0.0 0.0 0.0 0.0 0.0 0.0 0.0 0.0 0.0
0.0 0.2 0.7 0.2 0.3 0.7 1.0 1.1 0.5 0.0 0.0 2.4 0.0 0.1 0.0 0.0 0.0 0.0 0.0 0.0 0.0 0.0 0.0 0.0 0.0 0.0 0.0
0.2 0.1 0.0 0.0 0.0 1.6 3.3 3.8 2.4 0.1 0.0 1.2 0.4 0.2 0.0 0.0 0.0 0.0 0.0 0.0 0.0 0.0 0.0 0.0 0.0 0.0 0.0
0.0 0.0 0.0 0.0 0.0 0.2 4.0 12.0 5.7 3.7 0.0 4.4 1.2 1.2 5.6 0.0 0.0 0.0 0.0 0.0 0.0 0.0 0.0 0.1 0.0 0.4 0.8
0.0 0.0 0.0 0.0 0.1 0.1 1.6 9.9 15.4 9.4 0.0 8.8 10.8 2.3 8.1 3.6 2.5 2.5 1.7 1.1 1.5 2.0 1.9 1.2 0.9 1.0 3.0
0.1 0.2 0.2 0.3 0.2 0.3 0.4 1.7 3.6 8.9 3.2 4.6 19.0 7.0 12.6 8.9 5.3 5.9 4.4 5.3 7.5 8.0 9.3 2.5 1.0 0.6 0.4
1.1 0.5 0.2 0.1 0.4 0.6 0.8 1.3 2.0 2.9 3.8 4.1 9.5 9.8 13.0 12.7 8.0 5.3 7.5 6.9 6.5 7.7 6.4 6.5 5.0 3.2 2.4
2.5 0.7 0.1 0.5 0.8 1.4 4.7 3.4 5.4 3.3 3.9 4.8 7.0 9.2 11.3 7.1 8.5 7.5 7.3 11.8 8.5 7.3 5.9 6.7 2.0 1.4 0.7
2.3 2.2 0.9 0.7 2.8 3.1 5.8 9.3 12.7 7.9 8.0 6.8 5.4 3.5 4.3 6.5 8.2 6.5 7.6 7.9 9.4 8.4 6.1 8.8 5.4 1.1 0.3
2.9 2.1 5.5 5.3 7.2 7.7 9.6 12.3 12.8 9.9 10.7 9.4 7.8 7.3 6.5 5.8 5.1 10.5 8.6 9.4 9.6 7.0 5.2 7.6 8.3 3.8 0.1
5.2 6.0 8.5 7.4 7.3 9.2 9.9 10.5 10.9 8.7 7.4 5.8 7.9 11.2 13.6 7.1 4.9 4.2 14.8 11.2 7.8 6.7 3.7 4.0 6.8 5.3 0.1

GFSFLT2_prec_kuchsnow_150.txt.gz
Snowfall_Accumulation
0.1 0.5 0.3 0.0 0.0 0.0 0.0 0.0 0.0 0.0 0.0 0.0 0.0 0.0 0.0 0.0 0.0 0.0 0.0 0.0 0.0 0.0 0.0 0.0 0.0 0.0 0.0
0.6 0.3 0.1 0.0 0.0 0.0 0.0 0.1 0.0 0.0 0.0 0.0 0.0 0.0 0.0 0.0 0.0 0.0 0.0 0.0 0.0 0.0 0.0 0.0 0.0 0.0 0.0
0.2 0.0 0.0 0.6 0.0 0.0 0.0 0.0 0.0 0.0 0.0 0.0 0.0 0.0 0.0 0.0 0.0 0.0 0.0 0.0 0.0 0.0 0.0 0.0 0.0 0.0 0.0
0.4 0.7 0.3 0.0 0.2 0.0 0.0 0.0 0.0 0.0 0.0 0.0 0.0 0.0 0.0 0.0 0.0 0.0 0.0 0.0 0.0 0.0 0.0 0.0 0.0 0.0 0.0
2.2 2.2 0.1 0.0 0.0 0.0 0.0 0.0 0.2 0.0 0.0 0.0 0.0 0.0 0.0 0.0 0.0 0.0 0.0 0.0 0.0 0.0 0.0 0.0 0.0 0.0 0.0
3.0 0.5 0.0 0.0 0.0 0.1 2.0 2.1 1.7 0.0 0.0 0.1 0.0 0.0 0.0 0.0 0.0 0.0 0.0 0.0 0.0 0.0 0.0 0.0 0.0 0.0 0.0
0.3 0.2 0.3 0.1 3.0 3.6 1.4 2.1 1.2 0.0 0.2 0.4 0.0 0.0 0.0 0.0 0.0 0.0 0.0 0.0 0.0 0.0 0.0 0.0 0.0 0.0 0.0
0.0 0.2 0.7 0.2 0.3 0.7 1.0 1.1 0.5 0.0 0.0 2.4 0.0 0.1 0.0 0.0 0.0 0.0 0.0 0.0 0.0 0.0 0.0 0.0 0.0 0.0 0.0
0.2 0.1 0.0 0.0 0.0 1.6 3.3 3.8 2.4 0.1 0.0 1.2 0.4 0.2 0.0 0.0 0.0 0.0 0.0 0.0 0.0 0.0 0.0 0.0 0.0 0.0 0.0
0.0 0.0 0.0 0.0 0.0 0.2 4.0 12.0 5.7 3.7 0.0 4.4 1.2 1.2 5.6 0.0 0.0 0.0 0.0 0.0 0.0 0.0 0.0 0.1 0.0 0.4 0.8
0.0 0.0 0.0 0.0 0.1 0.1 1.6 9.9 15.4 9.4 0.0 8.8 10.8 2.3 8.1 3.6 2.5 2.5 1.7 1.1 1.5 2.0 1.9 1.2 0.9 1.0 3.0
0.1 0.2 0.2 0.3 0.2 0.3 0.4 1.7 3.6 8.9 3.2 4.6 19.0 7.0 12.6 8.9 5.3 5.9 4.4 5.3 7.5 8.0 9.3 2.5 1.0 0.6 0.4
1.1 0.5 0.2 0.1 0.4 0.6 0.8 1.3 2.0 2.9 3.8 4.1 9.5 9.8 13.0 12.7 8.0 5.3 7.5 6.9 6.5 7.7 6.4 6.5 5.0 3.2 2.4
2.5 0.7 0.1 0.5 0.8 1.4 4.7 3.4 5.4 3.3 3.9 4.8 7.0 9.2 11.3 7.1 8.5 7.5 7.3 11.8 8.5 7.3 5.9 6.7 2.0 1.4 0.7
2.3 2.2 0.9 0.7 2.8 3.1 5.8 9.3 12.7 7.9 8.0 6.8 5.4 3.5 4.3 6.5 8.2 6.5 7.6 7.9 9.4 8.4 6.1 8.8 5.4 1.1 0.3
2.9 2.1 5.5 5.3 7.2 7.7 9.6 12.3 12.8 9.9 10.7 9.4 7.8 7.3 6.5 5.8 5.1 10.5 8.6 9.4 9.6 7.0 5.2 7.6 8.3 3.8 0.1
5.2 6.0 8.5 7.4 7.3 9.2 9.9 10.5 10.9 8.7 7.4 5.8 7.9 11.2 13.6 7.2 4.9 4.2 14.8 11.2 7.8 6.7 3.7 4.0 6.8 5.3 0.1